1529121600.3,5907,16.69,73936.8,3.07,1.89,1.79,0,*4D
1529121601.51,5908,16.69,73938.3,3.09,2.13,2.01,0,*40
1529121602.76,5909,16.69,73940.5,3.07,2.13,2.01,0,*4F
1529121604.01,5910,16.69,73936.8,3.07,2.13,1.85,0,*48
1529121605.24,5911,16.63,73932.3,3.07,1.97,1.79,0,*45
1529121606.48,5912,16.69,73938.5,3.07,2.09,1.97,0,*42
1529121607.73,5913,16.63,73932.3,3.07,1.97,1.85,0,*44
1529121608.95,5914,16.63,73938.5,3.07,1.89,1.79,0,*4F
1529121610.21,5915,16.69,73936.0,3.07,1.97,1.85,0,*42
1529121611.45,5916,16.69,73936.5,3.07,2.09,1.89,0,*49
1529121612.67,5917,16.69,73932.5,3.07,2.01,1.79,0,*4F
1529121613.92,5918,16.63,73934.0,3.07,2.09,1.97,0,*48
1529121615.14,5919,16.69,73936.3,3.05,2.09,1.85,0,*48
1529121616.39,5920,16.69,73940.8,3.07,2.09,1.85,0,*40
1529121617.6,5921,16.69,73940.5,3.09,2.09,1.89,0,*43
1529121618.82,5922,16.63,73938.3,3.09,2.13,1.93,0,*40
1529121620.03,5923,16.69,73936.3,3.09,2.05,1.89,0,*4D
1529121621.22,5924,16.63,73938.0,3.09,1.93,1.83,0,*4C
1529121622.44,5925,16.69,73938.3,3.07,1.89,1.79,0,*4D
1529121623.65,5926,16.63,73936.0,3.09,2.01,1.89,0,*4C
1529121624.87,5927,16.63,73942.8,3.09,2.13,1.93,0,*45
1529121626.08,5928,16.69,73942.3,3.09,2.01,1.93,0,*49
1529121627.3,5929,16.63,73942.8,3.07,2.01,1.75,0,*4E
1529121628.55,5930,16.63,73944.8,3.07,1.85,1.63,0,*4E
1529121629.78,5931,16.63,73950.0,3.07,1.85,1.75,0,*48
1529121631.0,5932,16.69,73942.0,3.05,1.89,1.67,0,*46
1529121632.2,5933,16.69,73940.0,3.05,1.89,1.75,0,*44
1529121633.42,5934,16.69,73932.3,3.07,1.89,1.79,0,*4D
1529121634.64,5935,16.69,73932.3,3.07,1.97,1.79,0,*43
1529121635.86,5936,16.69,73934.5,3.07,1.89,1.79,0,*4F
1529121637.11,5937,16.69,73936.3,3.07,2.09,1.97,0,*45
1529121638.35,5938,16.63,73932.3,3.07,2.13,2.01,0,*4D
1529121639.6,5939,16.69,73938.3,3.07,2.13,2.01,0,*4C
1529121640.83,5940,16.69,73938.8,3.07,1.85,1.79,0,*42
1529121642.05,5941,16.69,73938.5,3.05,2.09,2.01,0,*4A
1529121643.28,5942,16.69,73942.0,3.05,2.13,2.09,0,*4A
1529121644.5,5943,16.69,73940.0,3.05,2.21,2.13,0,*41
1529121645.75,5944,16.69,73936.8,3.07,2.25,2.13,0,*40
1529121646.98,5945,16.69,73940.8,3.05,2.21,2.13,0,*47
1529121648.22,5946,16.69,73936.0,3.07,2.25,2.21,0,*43
1529121649.44,5947,16.69,73940.0,3.07,2.31,2.25,0,*43
1529121650.66,5948,16.69,73940.5,3.07,2.35,2.25,0,*48
1529121651.88,5949,16.69,73940.0,3.07,2.31,2.21,0,*49
1529121653.13,5950,16.69,73942.3,3.07,2.13,2.09,0,*4B
1529121654.38,5951,16.69,73944.5,3.07,2.13,2.01,0,*42
1529121655.62,5952,16.63,73946.0,3.07,2.01,1.97,0,*4E
1529121656.84,5953,16.69,73944.8,3.05,2.13,1.97,0,*4E
1529121658.07,5954,16.63,73940.5,3.05,2.25,2.13,0,*43
1529121659.31,5955,16.63,73940.3,3.07,2.21,2.21,0,*45
1529121660.53,5956,16.69,73946.5,3.05,2.21,2.13,0,*45
1529121661.76,5957,16.63,73942.8,3.07,2.31,2.25,0,*42
1529121663.0,5958,16.63,73942.8,3.07,2.25,2.25,0,*48
1529121664.23,5959,16.69,73938.5,3.07,2.31,2.25,0,*4C
1529121665.42,5960,16.69,73938.3,3.07,2.31,2.31,0,*43
1529121666.67,5961,16.69,73944.3,3.07,2.25,2.25,0,*42
1529121667.89,5962,16.69,73938.5,3.07,2.31,2.13,0,*41
1529121669.14,5963,16.63,73930.3,3.07,2.13,2.09,0,*4B
1529121670.39,5964,16.69,73938.3,3.07,2.13,2.09,0,*4C
1529121671.63,5965,16.69,73940.5,3.07,2.21,2.09,0,*4C
1529121672.86,5966,16.69,73940.8,3.05,2.21,2.13,0,*46
1529121674.11,5967,16.63,73942.5,3.07,2.25,2.01,0,*42
1529121675.35,5968,16.63,73940.5,3.07,2.01,1.89,0,*48
1529121676.59,5969,16.63,73940.3,3.07,2.09,2.01,0,*42
1529121677.84,5970,16.69,73948.5,3.07,2.25,2.09,0,*4C
1529121679.08,5971,16.63,73946.5,3.07,2.25,2.21,0,*47
1529121680.31,5972,16.63,73950.8,3.05,2.09,2.09,0,*42
1529121681.53,5973,16.63,73946.8,3.05,1.89,1.67,0,*43
1529121682.75,5974,16.69,73944.5,3.07,1.89,1.75,0,*45
1529121683.97,5975,16.69,73944.0,3.07,1.97,1.79,0,*47
1529121685.22,5976,16.69,73950.0,3.07,2.09,1.85,0,*43
1529121686.48,5977,16.63,73946.5,3.07,1.97,1.85,0,*46
1529121687.69,5978,16.69,73950.5,3.09,1.89,1.71,0,*43
1529121688.91,5979,16.69,73942.8,3.05,1.85,1.67,0,*45
1529121690.13,5980,16.69,73946.8,3.07,1.79,1.67,0,*42
1529121691.35,5981,16.69,73948.0,3.07,1.79,1.63,0,*47
1529121692.58,5982,16.69,73954.3,3.07,1.97,1.75,0,*43
1529121693.8,5983,16.69,73948.3,3.07,2.01,1.79,0,*42
1529121695.05,5984,16.63,73946.3,3.07,1.89,1.67,0,*49
1529121696.27,5985,16.69,73950.0,3.07,1.97,1.75,0,*44
1529121697.47,5986,16.63,73946.0,3.09,2.01,1.79,0,*49
1529121698.68,5987,16.69,73950.8,3.09,2.05,1.71,0,*44
1529121699.89,5988,16.69,73950.0,3.09,2.01,1.71,0,*4F
1529121701.1,5989,16.63,73946.8,3.09,1.89,1.71,0,*4D
1529121702.3,5990,16.69,73944.5,3.09,2.01,1.83,0,*4B
1529121703.51,5991,16.63,73942.0,3.09,1.93,1.71,0,*4F
1529121704.72,5992,16.69,73942.0,3.09,2.01,1.67,0,*43
1529121705.94,5993,16.63,73940.8,3.11,2.01,1.79,0,*44
1529121707.18,5994,16.69,73944.8,3.11,2.13,1.93,0,*44
1529121708.4,5995,16.69,73942.8,3.09,2.25,1.93,0,*49
1529121709.64,5996,16.63,73942.5,3.11,1.93,1.51,0,*43
1529121710.88,5997,16.69,73950.8,3.11,1.71,1.17,0,*4C
1529121712.09,5998,16.69,73950.5,3.09,1.51,0.95,0,*73
1529121713.3,5999,16.69,73944.5,3.11,1.43,0.97,0,*7A
1529121714.54,6000,16.69,73944.0,3.11,1.67,1.51,0,*4D
1529121715.77,6001,16.69,73944.5,3.11,1.93,1.59,0,*4F
1529121716.97,6002,16.69,73936.8,3.13,1.93,1.75,0,*40
1529121718.17,6003,16.63,73936.0,3.13,2.05,1.75,0,*4D
1529121719.36,6004,16.69,73938.0,3.13,2.05,1.83,0,*43
1529121720.56,6005,16.69,73940.8,3.13,2.05,1.75,0,*4B
1529121721.78,6006,16.69,73948.8,3.13,1.97,1.63,0,*47
1529121722.98,6007,16.69,73950.5,3.13,1.75,1.25,0,*48
1529121724.16,6008,16.69,73942.5,3.13,1.47,0.97,0,*7E
1529121725.38,6009,16.69,73950.0,3.13,1.43,0.91,0,*7D
1529121726.6,6010,16.63,73944.8,3.13,1.25,0.83,0,*76
1529121727.79,6011,16.69,73944.8,3.13,1.43,1.01,0,*4C
1529121728.99,6012,16.69,73944.5,3.13,1.33,0.97,0,*76
1529121730.24,6013,16.69,73944.3,3.15,1.13,0.87,0,*72
1529121731.47,6014,16.69,73942.0,3.15,1.59,1.43,0,*42
1529121732.7,6015,16.69,73944.5,3.13,1.71,1.37,0,*4C
1529121733.92,6016,16.69,73950.0,3.13,1.47,1.21,0,*4D
1529121735.12,6017,16.63,73944.8,3.13,1.33,1.01,0,*4D
1529121736.34,6018,16.69,73944.8,3.13,1.25,1.13,0,*46
1529121737.56,6019,16.69,73946.0,3.13,1.55,1.47,0,*41
1529121738.78,6020,16.69,73942.8,3.13,1.63,1.47,0,*4E
1529121739.99,6021,16.69,73940.0,3.13,1.71,1.71,0,*49
1529121741.21,6022,16.69,73938.8,3.13,2.05,1.93,0,*46
1529121742.43,6023,16.69,73936.0,3.13,2.05,1.85,0,*40
1529121743.63,6024,16.63,73938.8,3.13,1.97,1.75,0,*40
1529121744.85,6025,16.69,73940.8,3.13,1.93,1.63,0,*42
1529121746.07,6026,16.69,73944.5,3.13,1.85,1.71,0,*45
1529121747.29,6027,16.69,73946.5,3.13,1.97,1.71,0,*47
1529121748.49,6028,16.69,73946.5,3.13,2.05,1.75,0,*44
1529121749.68,6029,16.69,73940.0,3.13,1.97,1.75,0,*4D
1529121750.88,6030,16.69,73944.0,3.13,2.05,1.75,0,*4D
1529121752.1,6031,16.69,73944.8,3.13,1.85,1.63,0,*40
1529121753.35,6032,16.69,73940.8,3.11,1.71,1.51,0,*4B
1529121754.58,6033,16.69,73940.5,3.11,1.89,1.67,0,*48
1529121755.82,6034,16.69,73940.5,3.11,1.71,1.67,0,*48
1529121757.04,6035,16.63,73940.3,3.11,1.93,1.79,0,*4A
1529121758.26,6036,16.63,73942.5,3.11,1.89,1.79,0,*42
1529121759.5,6037,16.69,73948.0,3.11,1.89,1.71,0,*4B
1529121760.74,6038,16.69,73946.0,3.11,1.71,1.55,0,*45
1529121761.96,6039,16.63,73938.5,3.11,1.79,1.67,0,*4D
1529121763.17,6040,16.69,73936.0,3.11,1.79,1.67,0,*43
1529121764.41,6041,16.69,73936.5,3.11,1.89,1.71,0,*4A
1529121765.6,6042,16.69,73932.3,3.09,1.93,1.79,0,*43
1529121766.8,6043,16.63,73928.5,3.09,1.93,1.83,0,*47
1529121768.03,6044,16.63,73928.0,3.11,2.01,1.89,0,*4B
1529121769.28,6045,16.63,73930.5,3.11,2.13,2.01,0,*4A
1529121770.47,6046,16.69,73928.5,3.09,1.93,1.83,0,*42
1529121771.71,6047,16.69,73922.8,3.11,1.93,1.89,0,*40
1529121772.92,6048,16.69,73920.8,3.09,2.05,1.93,0,*41
1529121774.11,6049,16.69,73928.0,3.09,1.93,1.83,0,*4D
1529121775.31,6050,16.63,73928.0,3.09,1.93,1.83,0,*45
1529121776.52,6051,16.69,73930.0,3.09,2.01,1.93,0,*4D
1529121777.74,6052,16.63,73926.3,3.09,2.05,2.01,0,*42
1529121778.96,6053,16.69,73930.3,3.09,2.13,2.01,0,*44
1529121780.17,6054,16.69,73922.3,3.09,2.17,1.93,0,*4F
1529121781.4,6055,16.69,73926.0,3.09,2.17,2.01,0,*46
1529121782.62,6056,16.69,73948.5,3.11,2.01,1.83,0,*42
1529121783.83,6057,16.63,73944.3,3.09,1.89,1.55,0,*42
1529121785.05,6058,16.69,73950.8,3.09,1.71,1.33,0,*4A
1529121786.24,6059,16.69,73946.0,3.09,1.83,1.55,0,*46
1529121787.49,6060,16.69,73936.0,3.07,2.13,1.85,0,*45
1529121788.74,6061,16.69,73932.3,3.07,2.01,1.67,0,*4B
1529121789.95,6062,16.69,73932.8,3.09,1.89,1.59,0,*48
1529121791.13,6063,16.69,73936.8,3.09,1.83,1.67,0,*4E
1529121792.35,6064,16.69,73928.5,3.09,1.71,1.59,0,*49
1529121793.53,6065,16.69,73934.8,3.09,1.79,1.59,0,*40
1529121794.72,6066,16.69,73942.3,3.09,1.43,0.97,0,*79
1529121795.94,6067,16.69,73934.3,3.09,1.29,0.67,0,*7B
1529121797.16,6068,16.69,73934.5,3.09,1.09,0.55,0,*77
1529121798.35,6069,16.69,73932.5,3.09,1.05,0.79,0,*74
1529121799.57,6070,16.69,73934.8,3.09,1.21,0.87,0,*7B
1529121800.79,6071,16.69,73934.3,3.09,1.09,0.83,0,*74
1529121802.05,6072,16.69,73936.8,3.07,1.29,0.91,0,*78
1529121803.29,6073,16.69,73938.5,3.07,0.95,0.51,0,*43
1529121804.53,6074,16.69,73940.0,3.07,0.79,0.17,0,*44
1529121805.76,6075,16.63,73932.5,3.07,0.75,0.21,0,*4C
1529121807.01,6076,16.69,73938.0,3.07,0.83,0.21,0,*46
1529121808.23,6077,16.69,73936.5,3.07,0.67,0.41,0,*4B
1529121809.47,6078,16.63,73936.3,3.07,0.55,0.17,0,*46
1529121810.65,6079,16.69,73932.5,3.09,0.71,0.09,0,*70
1529121811.86,6080,16.69,73932.5,3.05,0.75,0.33,0,*47
1529121813.08,6081,16.69,73932.8,3.05,0.91,0.79,0,*42
1529121814.3,6082,16.69,73932.0,3.07,1.05,0.79,0,*7F
1529121815.54,6083,16.63,73936.3,3.07,0.91,0.63,0,*49
1529121816.78,6084,16.69,73932.8,3.07,0.83,0.83,0,*43
1529121818.0,6085,16.69,73936.3,3.05,0.91,0.79,0,*46
1529121819.21,6086,16.63,73938.5,3.05,0.63,0.17,0,*40
1529121820.4,6087,16.69,73940.8,3.05,0.05,-0.23,0,*5B
1529121821.61,6088,16.69,73942.3,3.07,0.17,0.05,0,*7C
1529121822.81,6089,16.69,73940.3,3.05,0.33,0.17,0,*4A
1529121823.99,6090,16.63,73938.8,3.01,0.13,-0.03,0,*5C
1529121825.17,6091,16.69,73944.0,3.05,0.43,0.33,0,*42
1529121826.38,6092,16.69,73944.0,3.05,0.67,0.75,0,*45
1529121827.59,6093,16.69,73942.3,3.01,0.67,0.47,0,*41
1529121828.8,6094,16.63,73934.8,3.05,0.75,0.29,0,*49
1529121830.01,6095,16.69,73942.3,3.01,0.75,0.21,0,*44
1529121831.21,6096,16.69,73942.8,3.01,0.37,0.25,0,*45
1529121832.42,6097,16.69,73942.0,3.05,0.83,0.67,0,*49
1529121833.67,6098,16.69,73940.0,3.07,1.17,1.13,0,*4A
1529121834.89,6099,16.63,73934.8,3.07,1.51,1.05,0,*4E
1529121836.15,6100,16.69,73938.5,3.07,1.55,0.91,0,*77
1529121837.39,6101,16.69,73936.8,3.07,1.47,0.83,0,*76
1529121838.63,6102,16.63,73936.8,3.07,1.47,0.63,0,*7B
1529121839.86,6103,16.69,73942.0,3.07,1.37,0.43,0,*7F
1529121841.06,6104,16.69,73936.0,3.09,1.21,0.43,0,*71
1529121842.27,6105,16.63,73936.3,3.09,1.43,0.87,0,*7C
1529121843.49,6106,16.69,73938.8,3.09,1.67,1.33,0,*47
1529121844.71,6107,16.69,73936.0,3.09,1.59,1.21,0,*48
1529121845.93,6108,16.69,73936.0,3.07,1.55,1.41,0,*43
1529121847.17,6109,16.69,73938.5,3.07,1.85,1.63,0,*4F
1529121848.42,6110,16.69,73940.5,3.07,1.85,1.67,0,*43
1529121849.66,6111,16.69,73938.8,3.07,1.89,1.67,0,*4E
1529121850.89,6112,16.69,73942.0,3.07,1.79,1.67,0,*42
1529121852.13,6113,16.69,73944.3,3.07,1.67,1.67,0,*4C
1529121853.37,6114,16.69,73944.5,3.07,1.63,1.67,0,*4F
1529121854.6,6115,16.69,73942.3,3.07,1.75,1.85,0,*45
1529121855.81,6116,16.63,73940.8,3.09,1.89,1.93,0,*4C
1529121857.0,6117,16.69,73950.8,3.09,1.83,1.93,0,*47
1529121858.19,6118,16.69,73958.0,3.09,1.71,1.79,0,*41
1529121859.42,6119,16.69,73952.8,3.07,1.01,1.29,0,*4C
1529121860.63,6120,16.69,73954.3,3.07,0.55,1.01,0,*7C
1529121861.85,6121,16.63,73950.3,3.07,0.55,1.05,0,*79
1529121863.08,6122,16.69,73950.3,3.05,1.13,1.47,0,*4D
1529121864.32,6123,16.69,73940.8,3.07,1.63,1.55,0,*4A
1529121865.55,6124,16.63,73930.8,3.07,1.85,1.75,0,*47
1529121866.78,6125,16.63,73928.5,3.05,1.97,1.85,0,*48
1529121867.98,6126,16.69,73936.3,3.05,1.89,1.79,0,*47
1529121869.18,6127,16.63,73928.3,3.05,1.89,1.79,0,*46
1529121870.4,6128,16.69,73930.0,3.05,1.67,1.55,0,*47
1529121871.61,6129,16.69,73930.5,3.01,1.43,1.29,0,*4F
1529121872.81,6130,16.69,73932.8,3.01,1.41,1.29,0,*45
1529121874.03,6131,16.69,73930.5,3.01,1.43,1.33,0,*4D
1529121875.24,6132,16.69,73924.8,3.01,1.43,1.43,0,*49
1529121876.48,6133,16.69,73924.5,2.97,1.47,1.43,0,*42
1529121877.73,6134,16.69,73932.5,2.97,1.55,1.47,0,*42
1529121878.98,6135,16.69,73928.3,2.97,1.59,1.55,0,*4C
1529121880.22,6136,16.69,73928.3,2.97,1.55,1.43,0,*44
1529121881.47,6137,16.69,73922.5,2.97,1.55,1.43,0,*45
1529121882.71,6138,16.69,73922.0,2.93,1.51,1.51,0,*49
1529121883.93,6139,16.69,73918.5,2.95,1.67,1.63,0,*4A
1529121885.14,6140,16.69,73918.3,2.95,1.89,1.85,0,*4C
1529121886.36,6141,16.69,73926.5,2.95,1.97,1.97,0,*41
1529121887.58,6142,16.69,73924.5,2.93,1.97,1.79,0,*44
1529121888.78,6143,16.69,73926.8,2.95,1.89,1.79,0,*4C
1529121890.02,6144,16.69,73924.8,2.93,1.85,1.85,0,*42
1529121891.24,6145,16.69,73922.8,2.95,1.97,1.97,0,*45
1529121892.46,6146,16.69,73928.3,2.95,2.09,1.97,0,*42
1529121893.7,6147,16.69,73926.5,2.93,2.13,2.01,0,*42
1529121894.92,6148,16.69,73924.3,2.95,2.09,2.01,0,*40
1529121896.14,6149,16.69,73926.5,2.95,2.09,2.01,0,*41
1529121897.37,6150,16.69,73924.5,2.93,2.21,2.21,0,*47
1529121898.58,6151,16.69,73924.3,2.95,2.21,2.21,0,*40
1529121899.8,6152,16.69,73924.0,2.95,2.21,2.13,0,*42
1529121901.01,6153,16.69,73932.0,2.95,2.21,2.21,0,*42
1529121902.2,6154,16.69,73934.5,2.95,2.25,2.27,0,*47
1529121903.37,6155,16.69,73928.8,2.95,2.35,2.35,0,*44
1529121904.53,6156,16.69,73928.3,2.95,2.35,2.27,0,*44
1529121905.7,6157,16.69,73928.5,2.95,2.27,2.27,0,*46
1529121906.89,6158,16.69,73934.8,2.93,2.35,2.35,0,*4F
1529121908.15,6159,16.69,73938.3,2.97,2.51,2.39,0,*44
1529121909.34,6160,16.69,73938.5,2.97,2.27,2.27,0,*40
1529121910.51,6161,16.69,73934.5,3.01,2.27,2.27,0,*4F
1529121911.71,6162,16.69,73938.0,2.97,2.31,2.27,0,*45
1529121912.91,6163,16.69,73942.5,2.97,2.31,2.31,0,*43
1529121914.11,6164,16.69,73946.5,2.97,2.27,2.27,0,*44
1529121915.3,6165,16.69,73944.3,2.97,2.31,2.31,0,*45
1529121916.49,6166,16.69,73938.5,3.01,2.39,2.27,0,*47
1529121917.67,6167,16.69,73936.0,3.01,2.31,2.27,0,*4E
1529121918.89,6168,16.69,73932.3,3.01,2.39,2.39,0,*46
1529121920.11,6169,16.69,73934.0,3.01,2.43,2.39,0,*4A
1529121921.29,6170,16.69,73932.3,3.01,2.27,2.27,0,*4F
1529121922.46,6171,16.69,73932.8,3.01,2.27,2.27,0,*4E
1529121923.65,6172,16.69,73930.3,3.01,2.31,2.39,0,*45
1529121924.82,6173,16.69,73942.8,3.01,2.31,2.27,0,*4B
1529121926.0,6174,16.69,73938.0,3.01,2.27,2.27,0,*4B
1529121927.16,6175,16.69,73942.3,3.01,2.27,2.27,0,*4A
1529121928.34,6176,16.69,73940.8,3.05,2.31,2.31,0,*4D
1529121929.55,6177,16.69,73934.3,3.05,2.13,1.89,0,*4C
1529121930.78,6178,16.69,73928.8,3.05,2.09,2.09,0,*43
1529121931.97,6179,16.69,73938.3,3.05,2.31,2.21,0,*43
1529121933.17,6180,16.69,73932.3,3.05,2.39,2.35,0,*48
1529121934.42,6181,16.69,73934.5,3.07,2.47,2.39,0,*4E
1529121935.67,6182,16.69,73930.5,3.07,2.39,2.47,0,*4D
1529121936.9,6183,16.69,73920.8,3.05,2.47,2.47,0,*47
1529121938.09,6184,16.69,73924.8,3.07,2.35,2.31,0,*46
1529121939.31,6185,16.69,73930.0,3.07,2.39,2.35,0,*4F
1529121940.51,6186,16.69,73928.0,3.07,2.35,2.35,0,*40
1529121941.73,6187,16.69,73926.8,3.05,2.25,2.21,0,*47
1529121942.95,6188,16.69,73924.0,3.05,2.25,2.21,0,*48
1529121944.17,6189,16.69,73928.3,3.07,2.31,2.25,0,*4A
1529121945.39,6190,16.69,73930.5,3.05,2.25,2.21,0,*41
1529121946.59,6191,16.69,73928.3,3.05,2.31,2.25,0,*41
1529121947.81,6192,16.69,73936.0,3.07,2.31,2.21,0,*44
1529121949.01,6193,16.69,73940.3,3.05,2.35,2.25,0,*47
1529121950.21,6194,16.69,73934.0,3.05,2.31,2.09,0,*4A
1529121951.44,6195,16.69,73936.5,3.07,2.31,2.13,0,*42
1529121952.63,6196,16.69,73940.3,3.05,2.31,2.21,0,*42
1529121953.87,6197,16.69,73942.0,3.07,2.21,1.97,0,*4E
1529121955.1,6198,16.69,73944.0,3.07,2.31,2.13,0,*4F
1529121956.32,6199,16.69,73938.8,3.07,2.31,2.25,0,*4B
1529121957.55,6200,16.69,73944.0,3.07,2.35,2.13,0,*49
1529121958.79,6201,16.69,73942.0,3.07,2.25,2.01,0,*4A
1529121959.99,6202,16.63,73938.3,3.09,2.27,2.05,0,*41
1529121961.18,6203,16.69,73942.8,3.09,2.27,2.25,0,*42
1529121962.37,6204,16.69,73942.3,3.11,2.35,2.27,0,*4D
1529121963.59,6205,16.69,73944.5,3.11,2.35,2.17,0,*4F
1529121964.79,6206,16.69,73938.3,3.09,2.27,2.17,0,*46
1529121966.02,6207,16.69,73938.0,3.09,2.17,2.13,0,*40
1529121967.21,6208,16.69,73938.8,3.09,2.35,2.25,0,*4A
1529121968.4,6209,16.69,73940.8,3.09,2.35,2.25,0,*4B
1529121969.6,6210,16.63,73938.3,3.09,2.27,2.17,0,*41
1529121970.79,6211,16.69,73944.3,3.09,2.27,2.17,0,*40
1529121972.01,6212,16.69,73936.0,3.09,2.25,2.01,0,*46
1529121973.22,6213,16.69,73934.0,3.09,2.05,1.89,0,*46
1529121974.46,6214,16.69,73932.5,3.11,2.01,1.89,0,*4C
1529121975.65,6215,16.69,73934.8,3.09,2.01,1.79,0,*4B
1529121976.89,6216,16.69,73938.3,3.11,2.05,1.89,0,*4A
1529121978.1,6217,16.69,73936.8,3.11,1.83,1.71,0,*41
1529121979.3,6218,16.69,73932.5,3.09,2.01,1.83,0,*43
1529121980.5,6219,16.69,73936.3,3.09,2.05,1.89,0,*4C
1529121981.74,6220,16.69,73940.0,3.11,2.05,1.89,0,*4F
1529121982.99,6221,16.69,73938.5,3.11,2.25,2.13,0,*4C
1529121984.21,6222,16.69,73936.3,3.09,2.25,2.13,0,*46
1529121985.43,6223,16.69,73930.5,3.09,2.25,2.13,0,*47
1529121986.67,6224,16.69,73930.8,3.11,2.25,2.13,0,*49
1529121987.89,6225,16.63,73930.8,3.11,2.27,2.25,0,*4F
1529121989.11,6226,16.69,73932.5,3.09,2.25,2.05,0,*45
1529121990.36,6227,16.63,73940.8,3.11,2.17,2.01,0,*48
1529121991.58,6228,16.69,73940.3,3.09,2.25,2.01,0,*4F
1529121992.79,6229,16.69,73940.5,3.09,2.13,2.01,0,*4B
1529121994.03,6230,16.69,73942.8,3.11,2.05,2.01,0,*4D
1529121995.28,6231,16.69,73944.0,3.11,2.25,2.13,0,*4D
1529121996.53,6232,16.69,73938.5,3.11,2.17,2.05,0,*48
1529121997.75,6233,16.69,73938.3,3.09,2.13,2.01,0,*40
1529121998.97,6234,16.69,73940.0,3.11,2.35,2.13,0,*49
1529122000.21,6235,16.69,73944.3,3.11,2.25,1.93,0,*42
1529122001.43,6236,16.69,73946.3,3.11,2.05,1.83,0,*42
1529122002.67,6237,16.69,73942.3,3.11,2.01,1.93,0,*46
1529122003.88,6238,16.69,73936.0,3.09,1.93,1.89,0,*43
1529122005.07,6239,16.69,73932.5,3.09,2.01,1.83,0,*40
1529122006.29,6240,16.69,73934.0,3.11,2.05,1.83,0,*43
1529122007.53,6241,16.69,73932.3,3.11,2.25,2.01,0,*49
1529122008.75,6242,16.69,73936.3,3.11,2.27,2.13,0,*4B
1529122009.97,6243,16.69,73938.3,3.11,2.27,2.05,0,*4D
1529122011.21,6244,16.69,73938.3,3.11,2.13,1.89,0,*4A
1529122012.45,6245,16.69,73938.5,3.11,2.25,2.01,0,*4D
1529122013.67,6246,16.69,73936.3,3.11,2.05,1.79,0,*40
1529122014.92,6247,16.69,73928.8,3.11,2.13,2.01,0,*4A
1529122016.13,6248,16.69,73936.3,3.13,2.21,1.97,0,*4A
1529122017.34,6249,16.63,73932.5,3.13,2.21,1.97,0,*4B
1529122018.58,6250,16.69,73936.5,3.11,2.25,2.01,0,*49
1529122019.78,6251,16.69,73938.8,3.13,2.27,2.05,0,*4C
1529122021.0,6252,16.69,73934.5,3.13,2.21,2.05,0,*49
1529122022.24,6253,16.69,73930.3,3.11,2.17,1.93,0,*43
1529122023.46,6254,16.69,73938.5,3.15,2.27,2.17,0,*4C
1529122024.69,6255,16.69,73940.3,3.13,2.39,2.17,0,*44
1529122025.93,6256,16.69,73938.5,3.11,2.25,1.93,0,*47
1529122027.15,6257,16.69,73942.8,3.13,2.17,1.97,0,*41
1529122028.37,6258,16.69,73940.0,3.13,2.09,1.85,0,*42
1529122029.6,6259,16.69,73942.8,3.13,2.17,1.93,0,*4B
1529122030.81,6260,16.69,73942.0,3.13,2.09,1.97,0,*4A
1529122032.04,6261,16.69,73942.5,3.13,2.05,1.85,0,*44
1529122033.26,6262,16.69,73944.8,3.13,2.17,2.05,0,*4F
1529122034.48,6263,16.69,73944.5,3.13,2.21,2.09,0,*47
1529122035.72,6264,16.69,73946.5,3.15,2.21,2.09,0,*46
1529122036.94,6265,16.69,73942.0,3.13,2.21,2.05,0,*4D
1529122038.15,6266,16.69,73942.5,3.13,2.21,2.05,0,*4E
1529122039.4,6267,16.69,73940.0,3.15,2.17,1.97,0,*44
1529122040.62,6268,16.69,73940.8,3.13,2.17,2.05,0,*45
1529122041.86,6269,16.69,73942.5,3.15,2.21,2.09,0,*4B
1529122043.05,6270,16.69,73938.5,3.13,2.31,2.21,0,*4E
1529122044.24,6271,16.69,73938.5,3.15,2.31,2.27,0,*4F
1529122045.47,6272,16.69,73934.8,3.13,2.39,2.39,0,*4D
1529122046.69,6273,16.69,73934.8,3.13,2.39,2.39,0,*4C
1529122047.91,6274,16.69,73936.8,3.15,2.39,2.31,0,*45
1529122049.15,6275,16.69,73936.0,3.15,2.39,2.39,0,*4C
1529122050.35,6276,16.69,73934.5,3.13,2.27,2.17,0,*4A
1529122051.52,6277,16.69,73936.0,3.13,2.31,2.27,0,*4F
1529122052.76,6278,16.69,73934.5,3.15,2.21,2.17,0,*44
1529122053.98,6279,16.69,73932.5,3.13,2.21,2.09,0,*4C
1529122055.2,6280,16.69,73942.0,3.13,2.09,2.09,0,*40
1529122056.42,6281,16.69,73946.5,3.13,2.21,2.05,0,*47
1529122057.64,6282,16.69,73942.0,3.13,1.97,1.93,0,*46
1529122058.88,6283,16.69,73936.5,3.11,2.01,1.93,0,*49
1529122060.1,6284,16.69,73940.5,3.13,2.09,2.05,0,*48
1529122061.32,6285,16.69,73942.3,3.13,2.21,2.17,0,*40
1529122062.54,6286,16.69,73936.3,3.13,2.09,2.05,0,*4A
1529122063.73,6287,16.69,73932.5,3.13,2.31,2.21,0,*46
1529122064.95,6288,16.69,73926.8,3.13,2.21,2.09,0,*42
1529122066.15,6289,16.69,73934.3,3.13,2.27,2.17,0,*4A
1529122067.32,6290,16.69,73936.0,3.13,2.27,2.27,0,*41
1529122068.54,6291,16.69,73934.0,3.13,2.09,1.97,0,*44
1529122069.76,6292,16.69,73936.0,3.13,2.17,2.05,0,*40
1529122070.98,6293,16.69,73930.5,3.13,2.21,2.17,0,*47
1529122072.2,6294,16.63,73928.3,3.11,2.35,2.25,0,*46
1529122073.42,6295,16.69,73932.3,3.15,2.27,2.21,0,*44
1529122074.61,6296,16.69,73934.8,3.13,2.27,2.21,0,*41
1529122075.82,6297,16.69,73938.3,3.15,2.27,2.21,0,*46
1529122077.04,6298,16.69,73944.0,3.13,2.21,2.09,0,*43
1529122078.26,6299,16.69,73946.5,3.13,2.21,2.09,0,*42
1529122079.48,6300,16.69,73946.3,3.13,2.21,2.09,0,*43
1529122080.72,6301,16.69,73952.8,3.15,2.17,1.97,0,*45
1529122081.94,6302,16.69,73946.5,3.13,2.09,1.97,0,*4F
1529122083.15,6303,16.63,73940.5,3.13,2.21,2.05,0,*4C
1529122084.39,6304,16.69,73948.5,3.15,2.21,2.09,0,*41
1529122085.59,6305,16.69,73942.5,3.13,2.27,2.09,0,*40
1529122086.8,6306,16.69,73940.3,3.13,2.05,1.93,0,*43
1529122088.02,6307,16.69,73940.3,3.13,2.21,1.97,0,*40
1529122089.24,6308,16.69,73940.5,3.13,2.17,1.97,0,*4A
1529122090.46,6309,16.69,73942.5,3.15,2.27,2.17,0,*45
1529122091.66,6310,16.69,73940.0,3.13,2.27,2.09,0,*44
1529122092.85,6311,16.69,73942.8,3.13,2.31,2.21,0,*48
1529122094.06,6312,16.69,73944.0,3.13,2.21,1.97,0,*44
1529122095.28,6313,16.69,73942.8,3.13,2.21,1.97,0,*45
1529122096.5,6314,16.69,73946.5,3.15,2.27,2.17,0,*49
1529122097.72,6315,16.69,73946.5,3.13,2.39,2.21,0,*44
1529122098.95,6316,16.69,73948.3,3.15,2.21,2.05,0,*4E
1529122100.17,6317,16.69,73944.8,3.13,2.21,2.09,0,*45
1529122101.39,6318,16.63,73936.5,3.13,2.21,2.05,0,*46
1529122102.61,6319,16.69,73946.0,3.15,2.27,2.17,0,*44
1529122103.83,6320,16.69,73944.3,3.15,2.27,2.17,0,*4E
1529122105.06,6321,16.69,73948.3,3.13,2.17,2.09,0,*45
1529122106.28,6322,16.69,73950.8,3.13,2.17,1.97,0,*42
1529122107.53,6323,16.69,73950.0,3.15,2.17,2.09,0,*41
1529122108.77,6324,16.69,73948.5,3.15,1.97,1.93,0,*4D
1529122110.01,6325,16.69,73940.0,3.15,2.17,1.93,0,*47
1529122111.21,6326,16.69,73942.8,3.13,2.27,2.05,0,*4D
1529122112.43,6327,16.69,73940.8,3.15,2.27,2.09,0,*46
1529122113.65,6328,16.69,73946.8,3.15,2.27,2.09,0,*49
1529122114.87,6329,16.69,73946.8,3.15,2.31,2.17,0,*40
1529122116.06,6330,16.69,73944.0,3.13,2.27,2.05,0,*4A
1529122117.3,6331,16.69,73944.3,3.15,2.21,2.09,0,*47
1529122118.5,6332,16.69,73946.8,3.13,1.97,1.75,0,*44
1529122119.7,6333,16.69,73946.8,3.13,1.93,1.75,0,*41
1529122120.9,6334,16.69,73946.5,3.13,1.85,1.75,0,*41
1529122122.14,6335,16.69,73950.0,3.15,2.09,1.93,0,*49
1529122123.35,6336,16.69,73958.0,3.13,2.09,1.97,0,*48
1529122124.57,6337,16.69,73964.5,3.13,2.21,2.09,0,*47
1529122125.79,6338,16.63,73960.0,3.15,2.27,2.17,0,*47
1529122127.0,6339,16.69,73960.3,3.15,2.31,2.21,0,*44
1529122128.25,6340,16.69,73956.3,3.15,2.09,2.05,0,*47
1529122129.46,6341,16.69,73952.0,3.13,2.21,2.09,0,*46
1529122130.71,6342,16.69,73942.0,3.15,2.09,2.05,0,*45
1529122131.93,6343,16.69,73940.0,3.13,2.17,2.05,0,*4D
1529122133.15,6344,16.69,73942.0,3.13,2.21,2.05,0,*4F
1529122134.36,6345,16.69,73942.8,3.13,2.21,2.05,0,*4E
1529122135.59,6346,16.69,73942.3,3.13,2.09,2.05,0,*47
1529122136.8,6347,16.69,73938.8,3.13,2.09,1.97,0,*4E
1529122138.02,6348,16.63,73936.8,3.13,2.05,1.93,0,*49
1529122139.22,6349,16.69,73940.3,3.13,1.93,1.83,0,*45
1529122140.44,6350,16.69,73942.8,3.13,2.17,1.97,0,*47
1529122141.66,6351,16.69,73944.8,3.13,1.97,1.93,0,*49